Weather in Talovka

Russia / Kemerovo Oblast     55°57′46″N   85°50′06″E
temp.,
°C
wind,
m/s
gust,
m/s
humid.,
%
clouds,
%
prec.,
mm/h
press.,
hPa
HPBL,
m
29 july, thu
thu2901:00+14s2263100 0.0 101040
04:00+14s1165100 0.0 100922
07:00+14s226698 0.0 101042
10:00+16ssw246092 0.0 1009258
13:00+21sw233680 0.0 10092269
16:00+21ssw234387 0.0 10091374
19:00+21s234710 0.0 10081136
22:00+15sse2268100 0.0 100830
30 july, fri
fri3001:00+13sse2368100 0.0 100954
04:00+13s1170100 0.0 100910
07:00+14sse1172100 0.0 100932
10:00+20s114897 0.0 1009562
13:00+23w234164 0.0 10091626
16:00+22w444959 0.1 10091430
19:00+18wnw27840 1.6 1011540
22:00+13nw118232 0.0 101310
31 july, sat
sat3101:00+11sw22745 0.0 101416
04:00+10s2276100 0.0 101527
07:00+12s247423 0.0 1016102
10:00+20ssw344872 0.0 1016687
13:00+23ssw343941 0.0 10151765
16:00+23ssw3440100 0.0 10141911
19:00+21s255259 0.0 1013532
22:00+16s2369100 0.0 101355
1 august, sun
sun101:00+16se356298 0.0 101295
04:00+14s387397 0.0 1011144
07:00+15ssw2869100 0.0 1011238
10:00+13ene2486100 0.3 1012125
13:00+18ssw246935 0.8 1011526
16:00+20w347816 1.1 1010847
19:00+19w23779 2.0 1010735
22:00+14n11943 0.1 101010
2 august, mon
mon201:00+12ne119648 0.1 100910
04:00+12ene119735 0.0 100912
07:00+13ene129521 0.0 100868
10:00+20ene22675 0.0 1007683
13:00+24nne124833 0.1 10051790
16:00+25wnw13385 0.0 10032155
19:00+23wnw235392 0.0 1003439
22:00+16ene23885 0.0 100342